New York, NY

6:27 AM EST on December 14, 2019 (GMT -0500)
La Guardia

Weather History for KLGA - October, 2019

Change the Weather History Date:

Thursday, October 10, 2019

  Actual Average Record
Temperature  
Mean Temperature 63 °F 60 °F  
Max Temperature 72 °F 67 °F 89 °F (1949)
Min Temperature 53 °F 53 °F 36 °F (1979)
Degree Days  
Heating Degree Days 2 6  
Month to date heating degree days 36 48  
Since 1 July heating degree days 39 83  
Cooling Degree Days 0 1  
Month to date cooling degree days 27 15  
Year to date cooling degree days 1482 1205  
Growing Degree Days 12 (Base 50)    
Moisture  
Dew Point 40 °F    
Average Humidity 52    
Maximum Humidity 77    
Minimum Humidity 27    
Precipitation  
Precipitation T in 0.13 in 2.26 in (1971)
Month to date precipitation 1.05 1.25  
Year to date precipitation 37.53 35.23  
Snow  
Snow 0.00 in 0.00 in - ()
Month to date snowfall 0.0 0.0  
Since 1 July snowfall 0.0 0.0  
Snow Depth 0.00 in    
Sea Level Pressure  
Sea Level Pressure 30.19 in    
Wind  
Wind Speed 16 mph (NNE)    
Max Wind Speed 26 mph    
Max Gust Speed 32 mph    
Visibility 10 miles    
Events Rain    
T = Trace of Precipitation, MM = Missing Value Source: NWS Daily Summary

Daily Weather History Graph

Daily Weather History Graph

Search for Another Location

Airport or City:

Astronomy

Oct. 10, 2019 Rise Set
Actual Time 7:01 AM EDT 6:23 PM EDT
Civil Twilight 6:33 AM EDT 6:50 PM EDT
Nautical Twilight 6:01 AM EDT 7:22 PM EDT
Astronomical Twilight 5:30 AM EDT 7:54 PM EDT
Moon 5:25 PM EDT (10/10) 3:40 AM EDT (10/10)
Length of Visible Light 12h 17m
Length of Day
11h 22m
Waxing Gibbous, 91% of the Moon is Illuminated
Oct 10
Waxing Gibbous
Oct 13
Full
Oct 21
Last Quarter
Oct 27
New
Nov 4
First Quarter

Hourly Weather History & Observations

Time (EDT) Temp. Dew Point Humidity Pressure Visibility Wind Dir Wind Speed Gust Speed Precip Events Conditions
12:51 AM 53.1 °F 46.9 °F 80% 30.25 in 10.0 mi North 12.7 mph - 0.01 in Rain Light Rain
1:09 AM 53.1 °F 46.9 °F 80% 30.24 in 10.0 mi North 13.8 mph - 0.00 in Rain Light Rain
1:51 AM 53.1 °F 46.0 °F 77% 30.23 in 10.0 mi North 16.1 mph - 0.00 in   Overcast
2:51 AM 53.1 °F 45.0 °F 74% 30.22 in 10.0 mi North 11.5 mph - N/A   Scattered Clouds
3:51 AM 54.0 °F 44.1 °F 69% 30.22 in 10.0 mi North 11.5 mph - N/A   Overcast
4:51 AM 54.0 °F 44.1 °F 69% 30.22 in 10.0 mi North 12.7 mph 20.7 mph N/A   Mostly Cloudy
5:51 AM 55.0 °F 45.0 °F 69% 30.22 in 10.0 mi North 13.8 mph - N/A   Overcast
6:51 AM 55.0 °F 45.0 °F 69% 30.22 in 10.0 mi North 10.4 mph - N/A   Mostly Cloudy
7:51 AM 55.9 °F 44.1 °F 64% 30.22 in 10.0 mi NNE 15.0 mph - N/A   Mostly Cloudy
8:51 AM 57.9 °F 43.0 °F 58% 30.23 in 10.0 mi North 12.7 mph - N/A   Mostly Cloudy
9:51 AM 59.0 °F 41.0 °F 51% 30.22 in 10.0 mi North 12.7 mph - N/A   Mostly Cloudy
10:51 AM 62.1 °F 41.0 °F 46% 30.22 in 10.0 mi North 16.1 mph - N/A   Mostly Cloudy
11:51 AM 63.0 °F 41.0 °F 45% 30.21 in 10.0 mi North 16.1 mph - N/A   Mostly Cloudy
12:51 PM 64.9 °F 39.0 °F 39% 30.20 in 10.0 mi North 18.4 mph 25.3 mph N/A   Mostly Cloudy
1:51 PM 66.9 °F 42.1 °F 40% 30.17 in 10.0 mi North 17.3 mph 21.9 mph N/A   Scattered Clouds
2:51 PM 70.0 °F 41.0 °F 35% 30.14 in 10.0 mi North 18.4 mph 25.3 mph N/A   Scattered Clouds
3:51 PM 72.0 °F 37.9 °F 29% 30.14 in 10.0 mi North 19.6 mph 24.2 mph N/A   Scattered Clouds
4:51 PM 71.1 °F 37.9 °F 30% 30.15 in 10.0 mi NNE 18.4 mph 26.5 mph N/A   Mostly Cloudy
5:51 PM 68.0 °F 37.0 °F 32% 30.17 in 10.0 mi ENE 18.4 mph - N/A   Mostly Cloudy
6:51 PM 66.0 °F 41.0 °F 40% 30.18 in 10.0 mi NE 16.1 mph - N/A   Mostly Cloudy
7:51 PM 64.9 °F 30.9 °F 28% 30.17 in 10.0 mi NNE 13.8 mph 21.9 mph N/A   Mostly Cloudy
8:51 PM 63.0 °F 28.9 °F 28% 30.16 in 10.0 mi NNE 18.4 mph 24.2 mph N/A   Overcast
9:51 PM 62.1 °F 30.0 °F 30% 30.17 in 10.0 mi NE 24.2 mph 32.2 mph N/A   Mostly Cloudy
10:51 PM 61.0 °F 32.0 °F 34% 30.17 in 10.0 mi NNE 21.9 mph 25.3 mph N/A   Mostly Cloudy
11:51 PM 60.1 °F 33.1 °F 36% 30.17 in 10.0 mi NNE 13.8 mph - N/A   Mostly Cloudy